Meath Environmental Platform

Observations for Trim Patrick St

Time AQI Temp °C Hum % Pres Pa CO μg/m³ H₂S μg/m³ NO μg/m³ NO₂ μg/m³ O₃ μg/m³ SO₂ μg/m³ PM1 μg/m³ PM2.5 μg/m³ PM10 μg/m³
Tuesday 4 August 2026
18:57 2 25.1 55 70,973 0 9.76 1.02 13.28 85.37 9.03 4.57 9.89 10.88
18:56 2 25.2 54 70,839 0 8.64 0.99 13.21 84.7 9 4.57 9.16 10.08
18:55 2 25.3 54 70,716 0 9.08 0.98 13.21 90.06 9.29 4.57 9.17 10.09
18:54 2 25.4 54 70,647 0 9.21 0.97 13.12 83.68 9.82 2.86 7.7 8.47
18:53 2 25.4 53 70,590 0 8.33 1.06 13.03 89.98 9.22 2.86 7.71 8.48
18:52 2 25.6 54 70,512 0 5.21 1.03 12.44 82.15 8.91 3.71 9.2 10.12
18:51 2 25.7 53 70,480 0 6.88 1.03 11.95 81.76 9.26 2.86 7.72 8.49
18:50 2 25.7 53 70,433 0 8.96 1.03 12.99 93.11 9.93 2.86 7.72 8.49
18:49 2 25.8 53 70,343 0 2.96 1.15 11.74 73.89 9.12 2.86 6.99 7.69
18:48 2 25.9 53 70,247 0 5.06 1.15 11.59 81.43 10 2.86 7.74 8.51
18:46 2 26.1 53 70,223 0 5.55 1.13 11.82 78.48 10.36 2.86 6.96 7.66
18:45 2 26.2 53 70,221 0 8.13 1.14 12.87 83.78 10.82 2 7 7.7
18:44 2 26.3 53 70,178 0 7.27 0.99 12.76 82.27 10.6 3.71 8.52 9.37
18:43 2 26.4 53 70,152 0 6.33 0.97 12.63 85.72 10.3 2.86 7.76 8.53
18:42 2 26.5 52 70,119 0 6.97 1.05 11.91 85.32 10.38 2.86 7.05 7.76
18:41 2 26.6 52 70,109 0 7.6 0.97 12.45 86.07 10.64 2.86 7.83 8.61
18:40 2 26.7 52 70,093 0 1.25 0.92 11.92 74.83 9.97 2.86 7.07 7.77
18:39 2 26.8 52 70,083 0 1.08 0.95 11.2 67.53 10.63 2 7.07 7.78
18:38 2 26.9 52 70,129 0 5.39 0.95 12.47 85.04 10.98 2.86 7.04 7.74
18:37 2 27 52 70,190 0 6.91 0.89 12.77 89.48 11.06 2.86 7.81 8.59